Regional Weather Roundup
Issued by NWS

Home | Current Version | Previous Version | Graphics & Text | Print | Product List | Glossary On
Versions: 1 2 3 4 5 6 7 8 9 10 11 12 13 14 15 16 17 18 19 20 21 22 23 24 25 26 27 28 29 30 31 32 33 34 35 36 37 38 39 40 41 42 43 44 45 46 47 48 49 50
000
ASUS45 KCYS 282310
RWRWY

WYOMING REGIONAL WEATHER ROUNDUP
NATIONAL WEATHER SERVICE CHEYENNE WY
500 PM MDT SAT MAR 28 2015

NOTE:  "FAIR" INDICATES FEW OR NO CLOUDS BELOW 12,000 FEET
WITH NO SIGNIFICANT WEATHER AND/OR OBSTRUCTIONS TO VISIBILITY.

WYZ001-290000-
YELLOWSTONE NATIONAL PARK

CITY           SKY/WX    TMP DP  RH WIND       PRES   REMARKS
LK YELLOWSTONE   N/A     47  14  26 W12G24    30.03S
W YELLOWSTONE  NOT AVBL

$$
WYZ002>013-054>058-071-098>099-290000-
NORTHERN WYOMING

CITY           SKY/WX    TMP DP  RH WIND       PRES   REMARKS
JACKSON        SUNNY     48  27  43 S23G32    30.08R
CODY           CLOUDY    55  30  38 W21G38    29.93R
GREYBULL       FAIR      73  21  14 W35G44    29.75S
WORLAND        FAIR      74  14  10 NW25G40   29.77R
SHERIDAN       CLOUDY    62  34  35 NW31G45   29.76R HAZE
BUFFALO        FAIR      69  22  16 NW26G41   29.76R
GILLETTE       PTSUNNY   74  27  17 W15G35    29.66R
HULETT         FAIR      75  23  14 SW18G24   29.63F
NEWCASTLE      FAIR      79  18  10 W30       29.67F

$$
WYZ014>020-022>026-101>103-290000-
CENTRAL WYOMING

CITY           SKY/WX    TMP DP  RH WIND       PRES   REMARKS
BIG PINEY      FAIR      60  21  22 W23G32    30.10R
PINEDALE       FAIR      55  21  26 W26       30.10R
DUBOIS         FAIR      54  19  26 W32G41    29.99S
LANDER         FAIR      67  16  14 W24G38    29.89R
RIVERTON       FAIR      68  16  13 W25G36    29.90S
CASPER         FAIR      75  20  12 W32G45    29.81F
DOUGLAS        FAIR      77  21  12 W39G48    29.77F

$$
WYZ021-027>030-104>119-290000-
SOUTHERN WYOMING

CITY           SKY/WX    TMP DP  RH WIND       PRES   REMARKS
EVANSTON       FAIR      60  20  21 W30G38    30.18S
KEMMERER       FAIR      57  19  23 W25G32    30.17R
FORT BRIDGER   FAIR      64  17  15 W33G40    30.19R
ROCK SPRINGS   FAIR      65  18  16 W40G52    30.08R
DIXON          FAIR      65  26  22 SW16G29   30.07R
RAWLINS        FAIR      68  15  13 W36G53    29.99R
SARATOGA       FAIR      66  23  19 SW22G28   30.02F
LARAMIE        FAIR      63  20  19 W22G37    30.00F
CHEYENNE       FAIR      70  19  14 W20G32    29.94F
TORRINGTON     FAIR      81  23  11 W30G38    29.75F
PINE BLUFFS    FAIR      77  19  11 W22G28    29.89S

$$



USA.gov is the U.S. government's official web portal to all federal, state and local government web resources and services.